CAPE
0 0 0 0 0 0 0 0 0 0 0 0 0 0 0 0 0 0 0 0 0 0 0 0 0 0 0 0 0 0 0 0 0 14 2 35 77 105 57 29 48 56 186 665 1562
0 0 0 0 0 0 0 0 0 0 0 0 0 0 0 0 0 0 0 0 0 0 0 0 0 0 0 0 0 0 0 0 6 21 0 4 77 146 76 104 97 158 871 1428 1660
0 0 0 0 0 0 0 0 0 0 0 0 0 0 0 0 0 0 0 0 0 0 0 0 0 0 0 0 0 0 0 0 0 0 0 2 33 229 143 118 65 66 737 1537 1725
0 0 0 0 0 0 0 0 0 0 0 0 0 0 0 0 0 0 0 0 0 0 0 0 0 0 0 0 0 0 0 0 0 0 0 0 35 129 203 134 0 324 1014 1544 1726
0 0 0 0 0 0 0 0 0 0 0 0 0 0 0 0 0 0 0 0 0 0 0 0 0 0 0 0 0 0 0 0 0 0 0 0 0 7 34 71 141 1061 1442 1401 1631
0 0 0 0 0 0 0 0 0 0 0 0 0 0 0 0 0 0 0 0 0 0 0 0 0 0 0 0 0 0 0 0 0 0 0 0 0 6 124 452 758 1038 1240 1444 1608
0 0 0 0 0 0 0 0 0 0 0 0 0 0 0 0 0 0 0 0 0 0 0 0 0 0 0 0 0 0 0 0 0 0 0 0 0 9 473 709 796 1021 1221 1349 1428
0 0 0 0 0 0 0 0 0 0 0 0 0 0 0 0 0 0 0 0 0 0 0 0 0 0 0 0 0 0 0 0 0 0 0 0 0 1 1142 917 860 1196 1293 1240 949
0 0 0 0 0 0 0 0 0 0 0 0 0 0 0 0 0 0 0 0 0 0 0 0 0 0 0 0 0 0 0 0 0 0 0 0 0 65 1327 1285 1062 1305 1337 1199 783
0 0 0 0 0 0 0 0 0 0 0 0 0 0 0 0 0 0 0 0 0 0 0 0 0 0 0 0 0 0 0 0 0 0 0 0 0 91 974 1249 1099 1280 1227 949 518
0 0 0 0 0 0 0 0 0 0 0 0 0 0 0 0 0 0 0 0 0 0 0 0 0 0 0 0 0 0 0 0 0 0 0 0 0 96 723 1232 1192 1212 854 447 64
0 0 0 0 0 0 0 0 0 0 0 0 0 0 0 0 0 0 0 0 0 0 0 0 0 0 0 0 0 0 0 0 0 0 0 0 0 4 491 830 982 1259 656 129 5
0 0 0 0 0 0 0 0 0 0 0 0 0 0 0 0 0 0 0 0 0 0 0 0 0 0 0 0 0 0 0 0 0 0 0 0 0 0 45 310 521 857 316 0 46
0 0 0 0 0 0 0 0 0 0 0 0 0 0 0 0 0 0 0 0 0 0 0 0 0 0 0 0 0 0 0 0 0 0 0 0 0 0 0 2 234 292 440 35 25
0 0 0 0 0 0 0 0 0 0 0 0 0 0 0 0 0 0 0 0 0 0 0 0 0 0 0 0 0 0 0 0 0 0 0 0 0 0 0 0 0 200 305 33 0
0 0 0 0 0 0 0 0 0 0 0 0 0 0 0 0 0 0 0 0 0 0 0 0 0 0 0 0 0 0 0 0 0 0 0 0 0 0 0 0 0 0 163 103 6
0 0 0 0 0 0 0 0 0 0 0 0 0 0 0 0 0 0 0 0 0 0 0 0 0 0 0 0 0 0 0 0 0 0 0 0 0 0 0 5 7 0 17 52 55
0 0 0 0 0 0 0 0 0 0 0 0 0 0 0 0 0 0 0 0 0 0 0 0 0 0 0 0 0 0 0 0 0 0 0 0 0 0 8 303 248 79 0 98 56
0 0 0 0 0 0 0 0 0 0 0 0 0 0 0 0 0 0 0 0 0 0 0 0 0 0 0 0 0 0 0 0 0 0 0 0 0 0 217 417 466 349 155 117 577
0 0 0 0 0 0 0 0 0 0 0 0 0 0 0 0 0 0 0 0 0 0 0 0 0 0 0 0 0 0 0 0 0 0 0 0 0 0 41 201 518 392 379 76 0
0 0 0 0 0 0 0 0 0 0 0 0 0 0 0 0 0 0 0 0 0 0 0 0 0 0 0 0 0 0 0 0 0 0 0 0 0 0 0 140 286 563 430 8 0
0 0 0 0 0 0 0 0 0 0 0 0 0 0 0 0 0 0 0 0 0 0 0 0 0 0 0 0 0 0 0 0 0 0 0 0 0 0 0 299 530 441 278 0 0
0 0 0 0 0 0 0 0 0 0 0 0 0 0 0 0 0 0 0 0 0 0 0 0 0 0 0 0 0 0 0 0 0 0 0 0 0 0 20 151 184 278 84 22 85
0 0 0 0 0 0 0 0 0 0 0 0 0 0 0 0 0 0 0 0 0 0 0 0 0 0 0 0 0 0 0 0 0 0 0 0 0 0 0 21 165 189 103 131 69
0 0 0 0 0 0 0 0 0 0 0 0 0 0 0 0 0 0 0 0 0 0 0 0 0 0 0 0 0 0 0 0 0 0 0 0 0 0 0 1 107 318 580 284 301
0 0 0 0 0 0 0 0 0 0 0 0 0 0 0 0 0 0 0 0 0 0 0 0 0 0 0 0 10 9 7 0 0 0 0 0 7 0 0 0 43 153 317 474 621
0 0 0 0 0 0 0 0 0 0 0 0 0 0 0 0 0 0 0 0 0 0 0 0 6 0 0 0 0 0 0 5 87 18 38 40 43 7 3 0 14 27 269 392 573
CIN
0 0 0 0 0 0 0 0 0 0 0 0 0 0 0 0 0 0 0 0 0 0 0 0 0 0 0 0 0 0 0 0 0 -113 -82 -149 -89 -177 -281 -206 -218 -249 -230 -158 -127
0 0 0 0 0 0 0 0 0 0 0 0 0 0 0 0 0 0 0 0 0 0 0 0 0 0 0 0 0 0 0 0 -202 -189 0 -98 -127 -109 -144 -166 -200 -223 -217 -174 -130
0 0 0 0 0 0 0 0 0 0 0 0 0 0 0 0 0 0 0 0 0 0 0 0 0 0 0 0 0 0 0 0 0 0 0 -87 -164 -177 -146 -119 -151 -183 -205 -168 -122
0 0 0 0 0 0 0 0 0 0 0 0 0 0 0 0 0 0 0 0 0 0 0 0 0 0 0 0 0 0 0 0 0 0 0 0 -208 -139 -162 -129 0 -251 -232 -174 -112
0 0 0 0 0 0 0 0 0 0 0 0 0 0 0 0 0 0 0 0 0 0 0 0 0 0 0 0 0 0 0 0 0 0 0 0 0 -211 -204 -259 -287 -255 -237 -200 -170
0 0 0 0 0 0 0 0 0 0 0 0 0 0 0 0 0 0 0 0 0 0 0 0 0 0 0 0 0 0 0 0 0 0 0 0 0 -282 -274 -313 -270 -249 -226 -208 -173
0 0 0 0 0 0 0 0 0 0 0 0 0 0 0 0 0 0 0 0 0 0 0 0 0 0 0 0 0 0 0 0 0 0 0 0 0 -184 -257 -305 -237 -233 -230 -216 -208
0 0 0 0 0 0 0 0 0 0 0 0 0 0 0 0 0 0 0 0 0 0 0 0 0 0 0 0 0 0 0 0 0 0 0 0 0 -45 -317 -284 -253 -216 -190 -198 -246
0 0 0 0 0 0 0 0 0 0 0 0 0 0 0 0 0 0 0 0 0 0 0 0 0 0 0 0 0 0 0 0 0 0 0 0 0 -248 -330 -291 -228 -220 -170 -201 -267
0 0 0 0 0 0 0 0 0 0 0 0 0 0 0 0 0 0 0 0 0 0 0 0 0 0 0 0 0 0 0 0 0 0 0 0 0 -273 -289 -269 -221 -207 -180 -229 -287
0 0 0 0 0 0 0 0 0 0 0 0 0 0 0 0 0 0 0 0 0 0 0 0 0 0 0 0 0 0 0 0 0 0 0 0 0 -178 -281 -285 -241 -212 -214 -292 -353
0 0 0 0 0 0 0 0 0 0 0 0 0 0 0 0 0 0 0 0 0 0 0 0 0 0 0 0 0 0 0 0 0 0 0 0 0 -294 -302 -330 -303 -216 -240 -342 -407
0 0 0 0 0 0 0 0 0 0 0 0 0 0 0 0 0 0 0 0 0 0 0 0 0 0 0 0 0 0 0 0 0 0 0 0 0 0 -323 -413 -406 -292 -388 0 -383
0 0 0 0 0 0 0 0 0 0 0 0 0 0 0 0 0 0 0 0 0 0 0 0 0 0 0 0 0 0 0 0 0 0 0 0 0 0 0 -35 -373 -409 -374 -380 -366
0 0 0 0 0 0 0 0 0 0 0 0 0 0 0 0 0 0 0 0 0 0 0 0 0 0 0 0 0 0 0 0 0 0 0 0 0 0 0 0 0 -299 -340 -161 0
0 0 0 0 0 0 0 0 0 0 0 0 0 0 0 0 0 0 0 0 0 0 0 0 0 0 0 0 0 0 0 0 0 0 0 0 0 0 0 0 0 0 -336 -321 -156
0 0 0 0 0 0 0 0 0 0 0 0 0 0 0 0 0 0 0 0 0 0 0 0 0 0 0 0 0 0 0 0 0 0 0 0 0 0 0 -227 -171 0 -221 -359 -441
0 0 0 0 0 0 0 0 0 0 0 0 0 0 0 0 0 0 0 0 0 0 0 0 0 0 0 0 0 0 0 0 0 0 0 0 0 0 -385 -359 -344 -433 0 -395 -333
0 0 0 0 0 0 0 0 0 0 0 0 0 0 0 0 0 0 0 0 0 0 0 0 0 0 0 0 0 0 0 0 0 0 0 0 0 0 -385 -282 -328 -347 -352 -250 -156
0 0 0 0 0 0 0 0 0 0 0 0 0 0 0 0 0 0 0 0 0 0 0 0 0 0 0 0 0 0 0 0 0 0 0 0 0 0 -147 -191 -270 -293 -226 -163 0
0 0 0 0 0 0 0 0 0 0 0 0 0 0 0 0 0 0 0 0 0 0 0 0 0 0 0 0 0 0 0 0 0 0 0 0 0 0 0 -138 -173 -296 -234 -101 0
0 0 0 0 0 0 0 0 0 0 0 0 0 0 0 0 0 0 0 0 0 0 0 0 0 0 0 0 0 0 0 0 0 0 0 0 0 0 0 -287 -293 -250 -247 0 0
0 0 0 0 0 0 0 0 0 0 0 0 0 0 0 0 0 0 0 0 0 0 0 0 0 0 0 0 0 0 0 0 0 0 0 0 0 0 -331 -288 -348 -310 -311 -407 -452
0 0 0 0 0 0 0 0 0 0 0 0 0 0 0 0 0 0 0 0 0 0 0 0 0 0 0 0 0 0 0 0 0 0 0 0 0 0 0 -156 -315 -362 -400 -425 -433
0 0 0 0 0 0 0 0 0 0 0 0 0 0 0 0 0 0 0 0 0 0 0 0 0 0 0 0 0 0 0 0 0 0 0 0 0 0 0 -92 -292 -305 -331 -387 -356
0 0 0 0 0 0 0 0 0 0 0 0 0 0 0 0 0 0 0 0 0 0 0 0 0 0 0 0 -137 -98 -92 -1 -1 0 0 -2 -78 0 0 0 -448 -348 -340 -336 -311
0 0 0 0 0 0 0 0 0 0 0 0 0 0 0 0 0 0 0 0 0 0 0 0 -62 0 0 0 0 0 0 -28 -57 -93 -61 -34 -54 -244 -147 0 -424 -427 -387 -364 -318
Wind_Speed
18 18 19 19 19 19 19 19 19 18 18 18 18 18 18 18 17 17 17 15 15 16 16 13 20 18 19 19 19 20 17 19 18 19 17 16 16 16 18 17 17 17 17 15 20
20 20 20 20 20 20 20 20 21 20 21 20 20 20 19 19 18 17 16 17 18 16 14 13 8 9 13 15 16 14 14 17 16 13 10 12 12 13 14 14 14 15 18 20 20
21 21 21 22 22 22 22 22 22 22 22 22 21 21 20 19 15 16 10 16 16 16 12 11 8 9 9 15 15 15 13 14 11 8 9 9 10 12 11 9 11 10 14 16 17
22 23 23 23 24 24 24 24 24 24 23 22 22 21 20 16 14 15 10 11 11 13 10 9 9 8 9 10 12 13 13 12 13 8 10 9 12 11 8 7 11 12 14 16 15
24 24 25 25 25 26 26 26 26 25 24 23 22 20 17 17 16 14 9 9 8 8 9 9 8 9 9 13 16 11 11 18 13 5 12 12 7 9 9 10 12 13 16 15 13
25 26 27 27 28 28 28 28 28 27 26 24 21 19 17 17 15 10 9 8 8 6 6 8 9 15 19 13 14 18 23 22 3 11 15 15 11 10 11 13 13 14 14 14 13
27 28 29 29 29 30 30 30 29 29 26 22 19 18 18 19 14 8 8 8 9 6 6 11 15 17 19 17 17 21 22 22 22 18 18 16 12 9 11 12 11 12 13 14 12
28 29 30 30 31 31 31 31 30 27 22 17 17 17 19 15 10 7 9 11 11 7 12 15 17 19 19 20 19 17 16 18 16 21 18 18 10 10 10 11 10 11 12 12 11
29 30 31 31 32 32 32 32 27 20 17 15 17 17 19 13 12 7 7 10 8 7 15 17 17 16 18 17 18 17 13 15 19 19 18 18 14 10 10 11 10 10 11 9 8
30 31 31 32 32 32 32 27 20 20 19 18 18 19 16 14 12 7 7 6 8 6 11 14 15 15 16 14 15 14 12 13 14 14 18 17 12 11 8 8 9 8 8 7 6
30 31 32 32 31 31 27 21 22 21 21 22 19 18 18 17 12 9 7 6 9 11 11 14 14 10 10 12 14 16 15 14 11 11 16 14 15 11 9 6 5 7 6 5 4
30 31 31 31 31 27 20 18 16 23 26 26 30 28 25 18 16 11 2 8 11 12 13 15 15 10 16 16 17 17 18 16 17 19 18 16 15 16 11 9 3 7 3 4 5
30 30 31 31 29 19 20 15 21 19 24 26 22 21 21 10 17 12 1 9 11 13 13 14 16 9 9 15 14 15 16 18 17 20 18 16 18 16 15 13 9 6 4 4 4
30 29 29 30 19 22 19 20 24 16 23 22 20 18 14 11 18 12 3 9 14 12 13 17 18 16 17 17 13 17 13 18 21 19 18 18 22 21 19 15 6 4 3 3 5
31 30 28 24 25 21 19 24 21 16 24 18 17 15 12 11 12 14 11 13 10 11 12 15 14 13 14 14 11 15 19 22 20 16 17 18 20 20 21 20 11 5 5 5 6
32 31 29 21 23 23 22 24 15 21 25 18 15 15 12 16 15 12 11 13 15 14 18 20 18 17 18 16 16 25 21 20 18 18 22 18 18 20 17 18 21 13 6 5 5
34 33 28 22 21 19 22 16 22 24 20 20 18 19 16 15 18 14 10 12 16 19 24 25 26 24 23 26 19 17 19 21 20 22 21 16 19 18 20 16 17 15 7 6 8
35 32 22 22 20 18 18 19 27 23 24 21 20 20 17 14 16 17 14 16 17 18 21 24 25 17 17 15 16 14 14 17 22 19 19 19 20 20 19 20 15 9 8 8 8
32 24 22 22 20 18 19 25 26 23 21 23 22 19 20 18 16 17 20 20 18 14 18 17 20 18 17 14 10 15 17 16 16 19 21 22 21 19 16 17 13 10 9 11 12
27 23 21 20 10 15 23 29 25 21 22 20 22 20 21 21 18 17 14 18 22 18 16 19 24 20 19 14 15 15 11 18 16 19 20 20 21 17 11 8 9 8 9 11 8
21 20 21 13 13 19 26 27 24 21 19 20 20 21 20 20 19 18 14 16 14 16 13 17 22 22 19 16 14 15 17 17 15 16 17 19 20 14 6 3 4 6 9 7 10
20 20 15 13 19 22 25 22 21 22 20 20 19 21 21 20 21 20 17 17 17 18 18 17 20 24 22 17 20 18 19 17 17 19 17 17 21 20 15 5 4 6 8 9 11
19 18 14 16 23 25 24 25 23 23 23 20 21 19 19 19 21 22 20 17 19 21 20 14 23 26 28 23 17 15 14 15 16 18 17 19 27 22 15 3 3 5 6 5 10
18 19 18 17 18 20 22 24 25 21 23 24 24 22 24 24 22 23 21 19 22 21 20 13 21 24 28 24 18 16 13 11 14 19 17 17 19 18 7 4 7 6 8 6 9
19 19 18 23 22 19 20 22 23 24 21 20 20 21 23 25 24 24 25 26 23 20 19 19 24 23 26 27 23 25 20 15 20 18 21 21 18 21 2 9 9 12 9 7 7
19 20 19 20 21 21 22 23 23 23 23 23 24 27 26 25 23 24 25 24 23 22 21 22 23 21 22 20 18 20 18 19 21 17 20 20 25 20 21 3 5 13 12 11 13
19 18 20 22 23 23 24 23 23 22 22 22 25 27 28 25 31 36 33 36 30 26 24 24 23 23 26 22 20 23 21 20 20 20 19 24 23 20 22 4 10 14 12 10 13
Wind_Direction
304 304 302 303 305 302 300 299 293 292 291 286 282 279 275 272 271 296 195 136 121 134 94 68 194 215 194 117 108 105 44 69 79 81 75 63 56 36 44 54 63 75 70 79 92
305 303 303 302 301 302 302 298 293 292 293 292 284 286 287 290 299 258 174 167 133 88 66 75 42 306 268 96 93 61 31 68 118 96 98 63 64 54 49 59 66 67 63 93 105
306 305 303 302 301 300 299 296 293 292 293 292 294 291 296 303 309 308 8 105 100 91 28 37 304 342 348 96 92 76 28 100 135 140 101 90 87 69 69 74 74 96 82 96 107
304 304 303 301 300 299 297 293 292 291 290 289 293 296 301 317 309 320 10 75 54 82 4 19 311 346 340 348 60 98 122 91 67 106 83 90 79 75 99 79 81 98 106 105 104
304 303 302 301 298 298 297 293 291 289 286 285 290 298 318 301 304 320 39 20 19 39 33 36 26 326 328 321 305 24 33 244 236 118 67 60 91 59 68 65 76 88 109 112 110
303 302 302 301 298 297 297 294 292 288 285 283 290 302 311 300 312 13 43 30 16 21 24 17 348 270 253 327 327 294 271 254 30 49 21 21 35 72 57 74 75 96 112 110 113
301 301 301 301 299 297 296 294 292 287 284 289 297 308 302 294 316 18 24 11 348 359 36 307 292 277 266 303 311 289 308 320 339 3 10 13 17 41 79 86 81 108 110 117 106
301 300 299 299 297 295 294 293 292 292 299 306 305 310 295 307 339 356 343 327 317 318 295 286 292 287 284 282 303 324 343 337 5 1 24 28 22 41 80 93 88 104 113 112 92
301 299 298 297 295 294 291 292 297 305 310 312 304 305 294 321 312 329 350 332 335 320 284 278 298 306 299 307 310 320 342 343 341 6 25 24 22 44 66 81 101 108 119 104 80
301 299 297 296 294 293 290 297 301 299 298 299 297 296 297 305 317 319 322 359 326 332 308 304 306 306 308 315 314 326 336 348 353 18 10 21 32 41 69 102 127 120 123 95 73
300 299 297 295 293 292 295 298 291 288 289 281 288 288 291 288 313 309 303 315 312 306 306 303 304 312 319 317 317 323 331 343 4 22 9 22 18 38 32 50 112 137 126 98 69
299 298 296 293 291 290 299 298 310 289 281 275 263 269 267 285 290 299 325 296 291 288 297 302 303 311 301 303 307 311 314 329 339 354 4 5 8 4 10 15 94 169 112 39 57
297 297 295 292 287 293 291 304 306 308 286 277 277 279 272 284 278 279 199 295 290 287 291 297 311 329 318 307 312 313 316 320 334 340 356 7 357 0 356 356 6 186 355 25 92
295 294 295 292 290 288 287 296 300 312 280 279 280 286 284 284 279 280 263 296 295 290 295 296 290 293 297 301 314 310 332 332 327 337 340 351 336 346 355 359 32 148 147 43 57
294 292 291 288 278 278 286 289 299 306 268 291 287 294 299 270 297 276 272 283 295 298 300 300 305 299 299 302 322 313 327 322 326 334 341 339 336 346 348 1 29 71 131 19 36
293 291 289 293 287 278 280 285 302 273 264 284 297 295 295 273 281 300 277 285 292 292 292 291 297 297 293 299 305 299 315 323 325 328 320 334 334 337 353 6 3 11 88 84 74
293 288 288 288 280 289 283 283 266 262 280 278 285 292 292 286 270 285 269 268 281 285 284 289 284 286 286 284 296 305 311 312 314 310 319 336 334 340 336 354 1 15 94 101 31
293 287 291 279 280 284 272 262 257 269 268 285 290 289 284 290 275 274 276 272 280 288 293 292 289 297 293 275 292 297 309 310 308 316 323 325 326 335 344 339 355 45 82 76 79
294 292 286 278 270 273 255 255 260 266 280 280 285 285 281 283 285 280 276 278 281 275 286 294 296 302 301 297 289 294 300 316 316 318 312 315 322 334 350 356 22 52 82 107 105
296 287 278 283 271 260 251 255 264 274 280 289 275 286 277 281 278 279 291 298 276 274 278 291 292 301 301 291 297 292 313 308 313 306 309 317 326 336 358 28 47 70 102 125 69
298 281 288 279 265 254 254 260 266 276 285 283 283 279 284 281 285 281 288 299 301 298 285 284 286 289 300 297 287 286 295 312 314 308 312 321 332 354 14 63 72 91 116 92 43
294 274 289 277 257 259 259 265 273 273 282 284 285 281 282 287 282 282 280 284 301 303 290 285 289 281 282 291 294 290 293 305 300 298 310 320 323 343 339 15 73 107 125 39 39
289 280 282 284 259 257 264 264 270 272 274 280 278 281 282 283 281 275 276 282 288 293 293 289 277 275 274 289 300 296 299 304 307 309 304 308 308 337 345 33 116 124 135 105 40
291 272 273 273 277 267 264 265 266 277 275 274 273 281 277 273 276 275 274 280 286 294 292 291 281 276 274 280 303 293 296 313 318 309 313 318 322 333 2 146 159 156 161 134 26
293 278 274 262 265 272 270 269 267 268 275 280 274 277 278 273 274 273 273 273 283 292 296 289 280 284 280 281 285 280 290 299 304 309 310 317 325 329 354 186 171 162 139 107 107
287 280 279 272 269 267 269 268 268 270 272 271 272 274 275 272 275 277 277 277 281 286 292 290 282 291 287 292 293 289 289 294 297 308 309 315 308 333 335 82 137 155 142 135 142
299 290 278 273 269 265 266 268 271 274 275 273 280 276 273 275 277 270 273 264 272 282 286 287 286 283 278 287 292 290 288 289 294 300 309 303 314 330 325 70 143 153 147 138 143